Tracking 19817 objects as of 18-Aug-2019
HD Live streaming from Space Station
objects crossing your sky now

JIADING 1

Track JIADING 1 now!
10-day predictions


NORAD ID: 43713
Int'l Code: 2018-094D
Perigee: 491.2 km
Apogee: 512.8 km
Inclination: 97.4 °
Period: 94.5 minutes
Semi major axis: 6873 km
RCS: Unknown
Launch date: November 19, 2018
Source: People's Republic of China (PRC)
Launch site: Jiuquan Satellite Launch Center, China (JSC)
aabbcc
Your satellite tracking list
Your tracking list is empty




NASA's NSSDC Master Catalog

Two Line Element Set (TLE):
1 43713U 18094D   19229.24642537  .00000330  00000-0  16682-4 0  9999
2 43713  97.4060 235.6558 0015701  44.0567  12.5405 15.23636764 41140
Source of the keplerian elements: AFSPC